Regional Weather Roundup
Issued by NWS

Home | Current Version | Previous Version | Text Only | Print | Product List | Glossary On
Versions: 1 2 3 4 5 6 7 8 9 10 11 12 13 14 15 16 17 18 19 20 21 22 23 24 25 26 27 28 29 30 31 32 33 34 35 36 37 38 39 40 41 42 43 44 45 46 47 48 49 50
000
ASUS43 KTOP 191608
RWRKS

WEATHER ROUNDUP FOR KANSAS
NATIONAL WEATHER SERVICE GOODLAND KS
1000 AM CST THU JAN 19 2017

NOTE:  "FAIR" INDICATES FEW OR NO CLOUDS BELOW 12,000 FEET WITH NO
SIGNIFICANT WEATHER AND/OR OBSTRUCTIONS TO VISIBILITY.

KSZ001>006-013>018-027>032-041>047-191700-
NORTHWEST KANSAS

CITY           SKY/WX    TMP DP  RH WIND       PRES   REMARKS
GOODLAND       FOG       28  28 100 W6        29.61R VSB 1/4
HAYS           CLOUDY    45  42  89 SE12      29.66F
HILL CITY      CLOUDY    43  43 100 SE5       29.65F FOG
RUSSELL        CLOUDY    44  43  96 S9        29.66S FOG
$$

KSZ061>065-074>080-084>089-191700-
SOUTHWEST KANSAS

CITY           SKY/WX    TMP DP  RH WIND       PRES   REMARKS
DODGE CITY     CLOUDY    42  40  92 S10       29.62F
ELKHART          N/A     33  22  64 NW10        N/A  WCI  25
GARDEN CITY    CLOUDY    40  38  93 SE8       29.60F
GREAT BEND     LGT RAIN  45  44  97 SE9       29.66F FOG
LIBERAL        CLOUDY    36  30  80 N3        29.59F VSB 1/4
PRATT          CLOUDY    42  41  97 S15       29.66S FOG
$$

KSZ066>073-081>083-090>101-191700-
SOUTHEAST KANSAS

CITY           SKY/WX    TMP DP  RH WIND       PRES   REMARKS
CHANUTE        CLOUDY    46  45  96 S9        29.79S FOG
COFFEYVILLE    CLOUDY    46  46 100 S10       29.80S
HUTCHINSON     CLOUDY    46  44  93 SE13      29.69F FOG
MEDICINE LODGE   N/A     45  43  93 SE14G25   29.65F
NEWTON         CLOUDY    44  44 100 SE10      29.71F FOG
PARSONS        CLOUDY    46  45  96 S5        29.80F FOG
WICHITA INTL   CLOUDY    47  45  93 SE16G24   29.70F FOG
WICHITA JABRA  CLOUDY    45  45 100 S12       29.71F FOG
WICHITA MCCONL CLOUDY    46  44  95 S14       29.71F
WINFIELD       CLOUDY    47  44  90 SE12      29.74S
$$

KSZ007>012-019>026-033>040-048>060-102>105-191700-
NORTHEAST KANSAS

CITY           SKY/WX    TMP DP  RH WIND       PRES   REMARKS
CONCORDIA      CLOUDY    43  43 100 SE7       29.72S
EMPORIA        CLOUDY    44  44 100 S10       29.76S FOG
LAWRENCE       CLOUDY    45  45 100 E8        29.80S FOG
MANHATTAN      CLOUDY    45  44  97 S3        29.76F FOG
MARYSVILLE     FOG       41  41 100 S5        29.76S VSB 1/2
OLATHE IND     CLOUDY    44  44 100 SE5       29.80S FOG
OLATHE EXE     FOG       43  43 100 S3        29.80S VSB 1
SALINA         CLOUDY    45  43  93 SE9       29.73F FOG
TOPEKA BILLARD CLOUDY    46  43  89 SE5       29.78F FOG
TOPEKA FORBES  CLOUDY    46  44  93 S8        29.77F FOG
$$




USA.gov is the U.S. government's official web portal to all federal, state and local government web resources and services.